[[{"header":{"parameterUnit":"m.s-1","parameterCategory":1,"la1":30.2991,"la2":30.254,"lo1":-89.0895,"lo2":-89.0444,"dy":0.0017,"dx":0.0017,"nx":28,"ny":28,"refTime":"2024-08-26T09:00:00:Z","depth":0,"parameterNumber":2,"parameterNumberName":"U-component_of_WINDS"},"data":[0,0,0,0,0,0,0,0,0,0,0,0,0,0,0,0,0,0,0,0,0,0,0,0,0,0,0,0,0,0,0,0,0,0,0,0,0,0,0,0,0,0,0,0,0,0,0,0,0,0,0,0,0,0,0,0,0,0,-3.35,-3.35,0,-3.3475,-3.3475,-3.3475,-3.3427,-3.3426,-3.3425,-3.3424,-3.3397,-3.3397,-3.3397,0,0,0,0,0,0,0,0,0,0,0,0,0,-3.3505,-3.3505,-3.35,-3.35,-3.3499,-3.3475,-3.3475,-3.3475,-3.3427,-3.3426,-3.3425,-3.3424,-3.3397,-3.3397,-3.3397,0,0,0,0,0,0,0,0,0,0,0,0,0,-3.3494,-3.3505,-3.35,-3.3473,-3.347,-3.3476,-3.3475,-3.3475,-3.3427,-3.3426,-3.3425,-3.3423,-3.3397,-3.3397,-3.3397,-3.3426,0,0,-3.3397,-3.3398,0,0,0,0,0,0,0,0,-3.3495,-3.3494,-3.3477,-3.3475,-3.3472,-3.3453,-3.3467,-3.3458,-3.3428,-3.3444,-3.3424,-3.3423,-3.3416,-3.3415,-3.3413,-3.3425,-3.3423,-3.3397,-3.3398,-3.3398,-3.3398,0,0,0,0,0,0,0,-3.3495,-3.3495,-3.349,-3.3477,-3.3474,-3.3462,-3.3459,-3.3465,-3.3438,-3.3442,-3.3439,-3.3436,-3.3415,-3.3413,-3.3412,-3.3423,-3.3397,-3.3398,-3.3398,-3.3398,-3.346,-3.3461,0,0,0,0,0,0,-3.35,-3.3496,-3.3491,-3.3489,-3.348,-3.3463,-3.3459,-3.346,-3.3438,-3.3433,-3.3438,-3.3434,-3.3413,-3.3412,-3.3411,-3.3445,-3.3398,-3.3398,-3.3398,-3.3458,-3.346,-3.3462,0,0,0,0,0,0,-3.3501,-3.3501,-3.3492,-3.3492,-3.349,-3.3464,-3.3466,-3.3461,-3.3459,-3.3434,-3.3429,-3.3441,-3.3412,-3.3411,-3.3423,-3.3443,-3.3398,-3.3398,-3.3456,-3.3459,-3.3461,-3.3512,0,0,0,0,0,0,-3.3501,-3.3501,-3.3512,-3.3492,-3.349,-3.3505,-3.3467,-3.3461,-3.346,-3.3455,-3.3436,-3.3432,-3.3411,-3.3423,-3.3424,-3.3443,-3.3398,-3.3454,-3.3457,-3.346,-3.3509,-3.3516,-3.3522,0,0,0,0,0,-3.3501,-3.3526,-3.3512,-3.3512,-3.3503,-3.3506,-3.3505,-3.3481,-3.3462,-3.3472,-3.3457,-3.3432,-3.3441,-3.3425,-3.3425,-3.3444,-3.3453,-3.3457,-3.346,-3.3506,-3.3515,-3.3522,0,0,0,0,0,0,-3.3546,-3.3523,-3.3507,-3.3526,-3.3519,-3.3498,-3.351,-3.3491,-3.3488,-3.3483,-3.3453,-3.345,-3.3467,-3.3457,-3.3439,-3.3473,-3.3443,-3.3447,-3.3478,-3.3487,-3.3493,-3.3495,-3.3398,0,0,0,0,0,-3.3559,-3.3564,-3.3543,-3.3562,-3.3559,-3.3536,-3.3536,-3.3519,-3.351,-3.3506,-3.3491,-3.3482,-3.3483,-3.3484,-3.3484,-3.3507,-3.3503,-3.3521,-3.3528,-3.3534,-3.3537,-3.355,-3.3558,-3.3473,-3.3473,-3.3473,0,0,-3.3584,-3.3572,-3.3577,-3.3571,-3.3563,-3.3569,-3.3533,-3.3541,-3.3545,-3.3506,-3.3518,-3.3508,-3.3496,-3.3515,-3.3522,-3.3507,-3.356,-3.3538,-3.3543,-3.3543,-3.3555,-3.3563,-3.357,-3.3475,-3.3475,-3.3474,0,0,-3.3633,-3.3624,-3.364,-3.3634,-3.3623,-3.3608,-3.3612,-3.3595,-3.3587,-3.3598,-3.357,-3.3575,-3.3577,-3.357,-3.3567,-3.3618,-3.3595,-3.3618,-3.3653,-3.3667,-3.3674,-3.368,-3.3699,-3.3706,-3.3622,-3.3622,-3.3622,0,-3.3665,-3.3674,-3.365,-3.366,-3.3659,-3.3627,-3.3643,-3.3637,-3.3627,-3.3627,-3.361,-3.3614,-3.3603,-3.3621,-3.3634,-3.3632,-3.3636,-3.362,-3.3675,-3.3681,-3.3686,-3.3703,-3.371,-3.3625,-3.3624,-3.3624,-3.3624,0,-3.3715,-3.3721,-3.3735,-3.3728,-3.3728,-3.3741,-3.372,-3.3723,-3.3707,-3.3694,-3.3707,-3.3694,-3.3691,-3.3694,-3.3677,-3.371,-3.3701,-3.3681,-3.365,-3.3697,-3.3713,-3.372,-3.3629,-3.3628,-3.3627,-3.3626,0,0,-3.3789,-3.3771,-3.3776,-3.3773,-3.3761,-3.3765,-3.3778,-3.3777,-3.3781,-3.3775,-3.3785,-3.3789,-3.377,-3.3767,-3.3749,-3.3761,-3.3804,-3.3739,-3.3738,-3.3752,-3.3841,-3.3857,-3.3865,-3.379,-3.3791,-3.3792,-3.3842,0,-3.3835,-3.3856,-3.3836,-3.386,-3.3867,-3.3838,-3.3849,-3.3843,-3.3832,-3.3836,-3.3823,-3.3827,-3.3801,-3.3799,-3.381,-3.3797,-3.3821,-3.3793,-3.3799,-3.3799,-3.3803,-3.3874,-3.389,-3.3938,-3.3848,-3.385,-3.385,0,-3.3891,-3.389,-3.3916,-3.3905,-3.3907,-3.3917,-3.3915,-3.392,-3.3912,-3.3904,-3.3902,-3.3882,-3.3893,-3.3865,-3.3881,-3.3862,-3.3864,-3.3858,-3.3859,-3.3859,-3.3827,-3.3875,-3.3953,-3.396,-3.386,-3.3859,-3.3858,0,-3.3943,-3.3949,-3.3966,-3.3964,-3.3951,-3.3959,-3.3954,-3.3945,-3.3947,-3.3946,-3.3946,-3.3946,-3.3946,-3.3946,-3.3927,-3.3908,-3.3946,-3.3916,-3.3939,-3.394,-3.3948,-3.3948,-3.4027,-3.3949,-3.3949,-3.3949,-3.3949,0,-3.3997,-3.4014,-3.399,-3.4,-3.4019,-3.3997,-3.4016,-3.4007,-3.4001,-3.4009,-3.3984,-3.3992,-3.3966,-3.3972,-3.3957,-3.3973,-3.3973,-3.3966,-3.3962,-3.3969,-3.397,-3.3969,-3.3965,-3.3951,-3.395,-3.395,-3.395,0,-3.4058,-3.4042,-3.4059,-3.4046,-3.4044,-3.4058,-3.4047,-3.4056,-3.4045,-3.4056,-3.4057,-3.4038,-3.4044,-3.4025,-3.4027,-3.4017,-3.4042,-3.4032,-3.4045,-3.4042,-3.4067,-3.4065,-3.4148,-3.4158,-3.4074,-3.4075,-3.4076,0,-3.4093,-3.4106,-3.4095,-3.41,-3.4097,-3.4104,-3.4106,-3.4086,-3.4089,-3.4084,-3.4094,-3.4098,-3.41,-3.4111,-3.4097,-3.4099,-3.4089,-3.4118,-3.4089,-3.4096,-3.409,-3.409,-3.4092,-3.4124,-3.4125,-3.4126,-3.4127,0,-3.4157,-3.4149,-3.4154,-3.4157,-3.4161,-3.4162,-3.4161,-3.4166,-3.4144,-3.4149,-3.4156,-3.4158,-3.4161,-3.4166,-3.4166,-3.416,-3.414,-3.4137,-3.4142,-3.4149,-3.4156,-3.4153,-3.4062,-3.4134,-3.4134,-3.4133,-3.4133,-3.4132,-3.4206,-3.4217,-3.4212,-3.4219,-3.4217,-3.4217,-3.4226,-3.4217,-3.4223,-3.4225,-3.4213,-3.4222,-3.4217,-3.4215,-3.4212,-3.4219,-3.4205,-3.4213,-3.4215,-3.4218,-3.4222,-3.4155,-3.4219,-3.4219,-3.4218,-3.4218,-3.4218,0,-3.4269,-3.4265,-3.4272,-3.4273,-3.4279,-3.4262,-3.4261,-3.4266,-3.4276,-3.4273,-3.4277,-3.4285,-3.4291,-3.4279,-3.4282,-3.4291,-3.4282,-3.4292,-3.4291,-3.4291,-3.4234,-3.4229,-3.43,-3.43,-3.43,-3.43,-3.43,-3.43,-3.4302,-3.4321,-3.4313,-3.4331,-3.4327,-3.4338,-3.4339,-3.434,-3.4338,-3.4349,-3.4354,-3.4347,-3.4341,-3.4345,-3.4349,-3.4346,-3.4348,-3.4362,-3.4355,-3.4302,-3.4294,-3.4287,-3.4282,-3.4363,-3.4363,-3.4411,-3.4412,-3.4412]},{"header":{"parameterUnit":"m.s-1","parameterCategory":1,"la1":30.2991,"la2":30.254,"lo1":-89.0895,"lo2":-89.0444,"dy":0.0017,"dx":0.0017,"nx":28,"ny":28,"refTime":"2024-08-26T09:00:00:Z","depth":0,"parameterNumber":3,"parameterNumberName":"V-component_of_WINDS"},"data":[0,0,0,0,0,0,0,0,0,0,0,0,0,0,0,0,0,0,0,0,0,0,0,0,0,0,0,0,0,0,0,0,0,0,0,0,0,0,0,0,0,0,0,0,0,0,0,0,0,0,0,0,0,0,0,0,0,0,-1.3465,-1.3464,0,-1.3437,-1.3436,-1.3436,-1.3391,-1.339,-1.339,-1.3389,-1.3361,-1.3361,-1.3361,0,0,0,0,0,0,0,0,0,0,0,0,0,-1.348,-1.348,-1.3465,-1.3464,-1.3464,-1.3437,-1.3436,-1.3436,-1.3391,-1.339,-1.3389,-1.3388,-1.3361,-1.3361,-1.3361,0,0,0,0,0,0,0,0,0,0,0,0,0,-1.3465,-1.348,-1.3465,-1.3439,-1.3436,-1.3437,-1.3436,-1.3436,-1.3392,-1.339,-1.3389,-1.3388,-1.3361,-1.3361,-1.3361,-1.3385,0,0,-1.3361,-1.3361,0,0,0,0,0,0,0,0,-1.3466,-1.3464,-1.3443,-1.344,-1.3437,-1.3416,-1.3431,-1.3419,-1.3392,-1.3408,-1.3389,-1.3387,-1.338,-1.3378,-1.3376,-1.3384,-1.3383,-1.3361,-1.3361,-1.3361,-1.3361,0,0,0,0,0,0,0,-1.3467,-1.3465,-1.3454,-1.3442,-1.3439,-1.3428,-1.3425,-1.3429,-1.3401,-1.3407,-1.3404,-1.3401,-1.3378,-1.3376,-1.3375,-1.3382,-1.3361,-1.3361,-1.3361,-1.3361,-1.3408,-1.3409,0,0,0,0,0,0,-1.3472,-1.3466,-1.3454,-1.3453,-1.3449,-1.3429,-1.3425,-1.3424,-1.3401,-1.3397,-1.3402,-1.3399,-1.3377,-1.3375,-1.3374,-1.3401,-1.3361,-1.3361,-1.3361,-1.3407,-1.3408,-1.3409,0,0,0,0,0,0,-1.3472,-1.3471,-1.3456,-1.3459,-1.3456,-1.343,-1.3429,-1.3424,-1.3422,-1.3397,-1.3392,-1.3404,-1.3375,-1.3374,-1.3382,-1.3399,-1.3361,-1.3361,-1.3405,-1.3407,-1.3409,-1.3455,0,0,0,0,0,0,-1.3473,-1.3471,-1.3481,-1.3459,-1.3456,-1.3465,-1.343,-1.3425,-1.3422,-1.3418,-1.3398,-1.3394,-1.3374,-1.3383,-1.3382,-1.3398,-1.3361,-1.3403,-1.3406,-1.3408,-1.3452,-1.3458,-1.3463,0,0,0,0,0,-1.3473,-1.3495,-1.3481,-1.348,-1.3467,-1.3466,-1.3464,-1.3441,-1.3423,-1.3432,-1.3416,-1.3395,-1.3397,-1.3384,-1.3383,-1.3399,-1.3402,-1.3405,-1.3408,-1.3449,-1.3457,-1.3463,0,0,0,0,0,0,-1.352,-1.3492,-1.3476,-1.3492,-1.3482,-1.3459,-1.3469,-1.345,-1.3445,-1.3441,-1.3412,-1.3408,-1.3421,-1.3411,-1.3397,-1.3421,-1.3396,-1.3399,-1.3428,-1.3435,-1.3441,-1.3443,-1.3361,0,0,0,0,0,-1.3532,-1.3533,-1.3509,-1.3525,-1.352,-1.3496,-1.3495,-1.3477,-1.3466,-1.3461,-1.3446,-1.3436,-1.3434,-1.3434,-1.3431,-1.345,-1.3445,-1.346,-1.3466,-1.3471,-1.3474,-1.3483,-1.3489,-1.3419,-1.3419,-1.3419,0,0,-1.3557,-1.3541,-1.3544,-1.3534,-1.3524,-1.3526,-1.3493,-1.3497,-1.3498,-1.3462,-1.3469,-1.3458,-1.3444,-1.3458,-1.3463,-1.345,-1.3492,-1.3475,-1.3479,-1.3479,-1.3486,-1.3493,-1.3499,-1.342,-1.342,-1.342,0,0,-1.3603,-1.3592,-1.3604,-1.3594,-1.358,-1.3563,-1.3566,-1.3545,-1.3536,-1.3543,-1.3515,-1.3517,-1.3514,-1.3506,-1.3501,-1.3543,-1.3523,-1.3543,-1.3574,-1.3583,-1.3588,-1.3593,-1.3608,-1.3614,-1.3546,-1.3546,-1.3546,0,-1.3636,-1.3639,-1.3612,-1.3618,-1.3614,-1.3581,-1.3592,-1.3584,-1.357,-1.3567,-1.3553,-1.3548,-1.3537,-1.3548,-1.3558,-1.3555,-1.3558,-1.3545,-1.3589,-1.3594,-1.3598,-1.3612,-1.3618,-1.3548,-1.3548,-1.3548,-1.3547,0,-1.368,-1.3682,-1.3693,-1.3679,-1.3676,-1.3685,-1.366,-1.366,-1.3642,-1.3627,-1.3634,-1.3619,-1.3612,-1.3613,-1.3596,-1.3622,-1.3614,-1.3595,-1.3569,-1.3608,-1.3621,-1.3626,-1.3552,-1.3551,-1.355,-1.355,0,0,-1.3757,-1.3727,-1.3732,-1.3725,-1.3705,-1.3706,-1.3713,-1.3706,-1.3707,-1.3697,-1.3702,-1.37,-1.3682,-1.3677,-1.3658,-1.3666,-1.37,-1.3645,-1.3645,-1.3656,-1.3726,-1.3742,-1.3748,-1.3686,-1.3687,-1.3687,-1.3728,0,-1.38,-1.381,-1.3786,-1.3802,-1.3803,-1.3771,-1.3776,-1.3765,-1.3751,-1.375,-1.3733,-1.3733,-1.3708,-1.3705,-1.3711,-1.3695,-1.3714,-1.3691,-1.369,-1.3691,-1.3696,-1.3755,-1.3771,-1.381,-1.3732,-1.3733,-1.3734,0,-1.3852,-1.3845,-1.3861,-1.384,-1.3839,-1.3845,-1.3836,-1.3835,-1.3822,-1.381,-1.3804,-1.3782,-1.3787,-1.3761,-1.3767,-1.3753,-1.3751,-1.3742,-1.3743,-1.3743,-1.3715,-1.3757,-1.3822,-1.3828,-1.3741,-1.3741,-1.374,0,-1.3907,-1.3901,-1.3909,-1.3904,-1.388,-1.3885,-1.3875,-1.3859,-1.3856,-1.3848,-1.3846,-1.3839,-1.3835,-1.383,-1.3807,-1.379,-1.3815,-1.3788,-1.3806,-1.3807,-1.3814,-1.3814,-1.388,-1.3812,-1.3812,-1.3811,-1.3811,0,-1.3958,-1.3969,-1.3934,-1.3939,-1.3951,-1.3922,-1.3934,-1.3921,-1.3907,-1.3909,-1.388,-1.3883,-1.3852,-1.3851,-1.3832,-1.384,-1.3839,-1.383,-1.3825,-1.3833,-1.3834,-1.3832,-1.3829,-1.3813,-1.3813,-1.3812,-1.3812,0,-1.4022,-1.3998,-1.4006,-1.3981,-1.3975,-1.3985,-1.3964,-1.3968,-1.3951,-1.3954,-1.3953,-1.3926,-1.3924,-1.3899,-1.3891,-1.3879,-1.3894,-1.3883,-1.3899,-1.3896,-1.3915,-1.3914,-1.3983,-1.3991,-1.3917,-1.3918,-1.3918,0,-1.4057,-1.4064,-1.4041,-1.404,-1.4031,-1.403,-1.4027,-1.3998,-1.3996,-1.398,-1.3986,-1.398,-1.3975,-1.3972,-1.3952,-1.3945,-1.3935,-1.3959,-1.3934,-1.3941,-1.3935,-1.3936,-1.3936,-1.3965,-1.3966,-1.3967,-1.3967,0,-1.4121,-1.4108,-1.4105,-1.4096,-1.4093,-1.4085,-1.4076,-1.4076,-1.4045,-1.4044,-1.404,-1.4036,-1.4027,-1.4022,-1.4012,-1.4001,-1.3979,-1.3975,-1.3979,-1.3988,-1.3997,-1.3992,-1.3914,-1.3974,-1.3974,-1.3973,-1.3973,-1.3972,-1.4171,-1.4176,-1.416,-1.4157,-1.4146,-1.4138,-1.414,-1.4123,-1.4119,-1.411,-1.4093,-1.4092,-1.4077,-1.4061,-1.4052,-1.405,-1.4037,-1.4043,-1.4045,-1.4047,-1.4051,-1.3996,-1.4048,-1.4048,-1.4048,-1.4048,-1.4047,0,-1.4234,-1.4222,-1.4219,-1.4206,-1.4203,-1.4182,-1.417,-1.4169,-1.4168,-1.4155,-1.415,-1.4146,-1.414,-1.4119,-1.4112,-1.4115,-1.4104,-1.4114,-1.4114,-1.4111,-1.4063,-1.406,-1.4122,-1.4122,-1.4122,-1.4122,-1.4122,-1.4122,-1.4267,-1.4275,-1.426,-1.4262,-1.4249,-1.4248,-1.4243,-1.4235,-1.4224,-1.4221,-1.4216,-1.4202,-1.4186,-1.4177,-1.4171,-1.4164,-1.4163,-1.4176,-1.4167,-1.4122,-1.4115,-1.4108,-1.4106,-1.4176,-1.4176,-1.4215,-1.4216,-1.4216]}]]